Details for EasyJet at LFPO




Go Back


Latest METAR
Local Time

LFPO 240800Z VRB03KT 4500 BR BKN012 19/15 Q1018 NOSIG

24/05/2018, 10:12:10

Description
Results
EasyJet Logo
Number of Pilots based at LFPO
0 Pilots Based here
Number of EasyJet Flights Departed from LFPO
0 Flights Departed
Number of EasyJet Flights Arrived at LFPO
1 Flights Arrived
Number of EasyJet Schedules Departing from LFPO
110 Schedules
Number of EasyJet Schedules Arriving at LFPO
111 Schedules
Number of EasyJet Schedules Departing from LFPO availible today
52 Schedules Today
Number of EasyJet Schedules Arriving at LFPO availible today
53 Schedules Today
Average Landing Rate at LFPO
-216 fpm
EasyJet Average Landing Rate at LFPO
-314 fpm
Total Fuel Purchased at LFPO by EasyJet
0.00 kgs / 0.00 lbs

Pilots Based at LFPO


Pilot ID
Pilot Name
Pilot Rank
No. of Flights
No. of Flying Hours
There are no pilots assigned to this hub!   Will you be the first?
Content